Location: Petrova Ves
(48.7194°N, 17.1619°E)
Time: 14:30:09
(UTC+00:00)

Daily predictions for brighter satellites

Satellite Brightness Start Highest point End
(mag) Time Altitude Azimuth Time Altitude Azimuth Time Altitude Azimuth
STARLINK-1224 4.5 17:55:06 10° W 17:59:09 48° N 18:03:11 10° ENE
STARLINK-1201 4.2 17:56:43 10° WNW 17:59:47 36° N 18:02:52 10° ENE
CZ-4 R/B 3.8 17:58:21 10° SSW 18:01:37 26° W 18:04:55 10° NW
Cosmos 1825 Rocket 4.2 17:57:48 10° N 18:01:54 36° ENE 18:05:55 10° SE
Cosmos 292 Rocket 3.9 17:59:03 10° NNW 18:03:53 86° WSW 18:08:42 10° SSE
STARLINK-1225 4.5 18:00:09 10° W 18:04:10 47° N 18:08:12 10° ENE
SL-8 R/B 4.3 18:01:30 10° W 18:06:09 51° SSW 18:10:46 10° SE
Cosmos 1943 Rocket 2.5 18:01:27 10° NNW 18:06:58 69° WSW 18:12:30 10° SSE
BREEZE-M DEB (TANK) 4.0 17:58:18 10° W 18:07:03 87° N 18:10:11 10° E
Cosmos 2074 Rocket 4.2 18:01:05 10° N 18:07:15 54° ENE 18:13:24 10° SSE
COSMOS 2455 4.0 18:02:47 10° NNW 18:08:02 29° NE 18:13:14 10° E
Cosmos 2369 Rocket 2.3 18:02:54 10° NNW 18:08:39 86° WSW 18:14:18 10° SSE
Cosmos 1703 4.2 18:05:36 10° N 18:09:07 29° ENE 18:12:37 10° SE
STARLINK-1230 4.5 18:05:09 10° W 18:09:10 47° N 18:13:11 10° ENE
IRS-1A Rocket 4.4 18:05:40 10° SSE 18:11:23 85° ENE 18:17:15 10° NNW
SPOT 3 Rocket 4.1 18:06:44 10° SE 18:11:36 42° ENE 18:16:30 10° N
STARLINK-1243 4.5 18:10:07 10° W 18:14:08 46° N 18:18:09 10° ENE
Cosmos 1758 Rocket 3.6 18:10:27 10° N 18:14:44 56° ENE 18:18:58 10° SSE
IRIDIUM 106 4.4 18:09:39 10° N 18:14:51 63° E 18:20:01 10° SSE
CZ-2C R/B 4.4 18:13:13 10° NNE 18:17:30 33° E 18:21:42 10° SSE
Abrixas rocket 1.9 18:15:04 10° W 18:18:01 83° S 18:20:44 12° E
Cosmos 407 Rocket 4.5 18:15:20 10° SSE 18:19:22 24° E 18:23:24 10° NE
Cosmos 1992 Rocket 4.3 18:15:46 10° NNW 18:20:59 73° WSW 18:26:09 10° SSE
Cosmos 1437 2.5 18:19:10 10° N 18:22:11 62° ENE 18:25:10 10° SSE
Cosmos 1953 Rocket 4.1 18:18:00 10° N 18:22:15 40° ENE 18:26:28 10° SE
Cosmos 1953 2.2 18:18:21 10° S 18:22:18 76° E 18:26:19 10° NNE
Cosmos 2228 3.5 18:19:36 10° SSE 18:23:33 37° E 18:27:33 10° NNE
Cosmos 1606 Rocket 4.0 18:21:41 10° SSE 18:25:51 42° E 18:30:05 10° NNE
Cosmos 1818 3.8 18:20:56 10° SSW 18:26:06 47° ESE 18:31:19 10° NE
Cosmos 1908 3.9 18:24:59 10° SSE 18:28:27 32° E 18:31:56 10° NNE
Cosmos 2263 4.3 18:22:59 10° NNW 18:28:38 83° WSW 18:34:14 10° SSE
Cosmos 1470 4.3 18:28:56 10° SW 18:32:36 39° WNW 18:36:20 10° N
SL-08 RB Rocket 3.7 18:29:29 10° SSE 18:34:01 75° ENE 18:38:38 10° N
STARLINK-1200 4.5 18:30:11 10° WNW 18:34:11 45° N 18:38:08 10° ENE
ERBS 4.4 18:31:51 10° NW 18:34:30 21° N 18:37:09 10° ENE
Cosmos 1943 3.2 18:28:58 10° SSW 18:34:34 67° ESE 18:40:14 10° NNE
Aureole 2 Rocket 4.4 18:34:00 10° NW 18:37:04 29° WSW 18:40:03 10° SSW
CZ-2C R/B 3.2 18:33:46 10° S 18:38:39 70° WSW 18:43:25 10° NNW
STARLINK-1192 4.5 18:35:11 10° WNW 18:39:11 45° N 18:42:54 12° ENE
BREEZE-M DEB (TANK) 2.0 18:34:16 10° WSW 18:39:30 65° SSE 18:41:06 20° E
Cosmos 1461 3.7 18:36:08 10° NNW 18:40:25 43° NE 18:43:27 18° ESE
CZ-4C R/B 4.4 18:38:58 10° NW 18:43:58 23° N 18:49:38 10° ENE
STARLINK-1244 4.5 18:40:11 10° WNW 18:44:12 45° N 18:47:42 13° ENE
H-2A R/B 2.8 18:43:22 10° S 18:48:29 53° W 18:53:28 10° NNW
STARLINK-1138 4.5 18:45:10 10° WNW 18:49:11 45° N 18:52:28 14° ENE
NOSS 3-4 (A) 3.8 18:46:07 10° NW 18:53:03 81° NE 18:58:54 19° SE
NOSS 3-4 (C) 3.8 18:46:14 10° NW 18:53:10 80° NE 18:58:59 19° SE
STARLINK-1143 4.4 18:50:09 10° WNW 18:54:09 46° N 18:57:13 16° ENE
Cosmos 1656 Rocket 3.8 18:48:56 10° NNW 18:54:37 78° WSW 18:59:39 13° SSE
CZ-2C R/B 2.7 18:52:13 10° NNE 18:57:15 50° E 19:02:17 10° S
Cosmos 2341 Rocket 4.4 18:51:16 10° N 18:57:25 47° ENE 19:01:43 20° SE
SL-16 R/B 4.5 18:53:35 10° WSW 18:58:21 27° NW 19:03:08 10° NNE
STARLINK-1241 4.4 18:55:11 10° WNW 18:59:12 46° N 19:02:02 18° ENE
STARLINK-1228 3.2 18:56:35 10° WNW 18:59:24 50° NNE 19:00:22 32° ENE
Resurs 1-3 3.5 18:55:38 14° SSE 18:59:27 83° ENE 19:03:53 10° NNW
Aureole 1 Rocket 4.2 18:53:06 10° S 19:00:37 61° ESE 19:06:35 10° NNE
MetOp-A 4.2 18:56:46 10° SSE 19:02:08 84° WSW 19:07:32 10° NNW
NOSS 3-3 (A) 4.3 18:57:00 10° SW 19:02:57 72° NW 19:09:45 10° NE
Cosmos 1726 3.1 18:59:20 10° SSW 19:02:58 50° WNW 19:06:38 10° N
NOSS 3-3 (C) 4.3 18:57:07 10° SW 19:03:03 72° NW 19:09:50 10° NE
STARLINK-1239 4.4 19:00:10 10° WNW 19:04:11 47° N 19:06:48 20° ENE
ARGOS 4.1 18:59:05 10° S 19:04:17 48° W 19:09:30 10° NNW
Cosmos 2184 Rocket 4.5 18:59:53 10° NNW 19:06:07 63° W 19:12:15 10° S
Cosmos 2058 4.3 19:04:37 10° NNE 19:07:47 21° ENE 19:08:05 21° ENE
SJ-6B 4.2 19:03:55 10° SSW 19:07:48 40° W 19:11:44 10° NNW
STARLINK-60 3.9 19:05:28 10° SSW 19:07:55 32° SSE 19:07:55 32° SSE
STARLINK-1240 4.4 19:05:11 10° WNW 19:09:12 47° N 19:11:36 22° ENE
STARLINK-1233 3.5 19:07:11 10° WNW 19:10:15 49° NNE 19:11:11 35° ENE
STARLINK-1212 3.5 19:07:38 10° WNW 19:10:42 49° NNE 19:11:36 36° ENE
STARLINK-1105 3.5 19:08:04 10° WNW 19:11:09 50° NNE 19:12:03 36° ENE
BREEZE M DEB (TANK) 3.7 19:08:26 10° SSW 19:11:35 31° SE 19:19:02 10° ENE
STARLINK-1206 3.4 19:08:34 10° WNW 19:11:37 49° NNE 19:12:28 37° ENE
STARLINK-1247 3.4 19:09:02 10° WNW 19:12:05 50° NNE 19:12:54 37° ENE
STARLINK-1227 3.4 19:09:26 10° WNW 19:12:30 50° NNE 19:13:20 37° ENE
USA 186 4.4 19:10:22 10° SW 19:12:57 21° W 19:15:27 10° NW
STARLINK-1218 3.4 19:09:56 10° WNW 19:13:00 50° NNE 19:13:47 38° ENE
STARLINK-1226 3.4 19:10:22 10° WNW 19:13:25 50° NNE 19:14:12 39° ENE
STARLINK-1254 3.4 19:10:46 10° WNW 19:13:52 51° NNE 19:14:38 39° ENE
STARLINK-1216 4.3 19:10:11 10° WNW 19:14:13 48° N 19:16:24 24° ENE
STARLINK-1215 3.4 19:11:16 10° WNW 19:14:20 51° NNE 19:15:04 40° ENE
DMSP B5D2-2 4.0 19:09:14 10° NNE 19:14:29 80° ESE 19:19:43 10° SSW
STARLINK-67 2.3 19:12:10 10° WNW 19:14:43 79° N 19:14:43 79° N
STARLINK-1231 3.4 19:11:44 10° WNW 19:14:48 51° NNE 19:15:30 40° ENE
STARLINK-1232 3.4 19:12:38 10° WNW 19:15:42 51° NNE 19:16:22 41° ENE
STARLINK-1217 3.4 19:13:05 10° WNW 19:16:09 52° NNE 19:16:48 42° ENE
STARLINK-1208 3.4 19:13:29 10° WNW 19:16:35 52° NNE 19:17:15 42° ENE
Terra 3.5 19:16:09 17° ENE 19:16:59 18° ENE 19:20:06 10° NNE
STARLINK-1229 3.3 19:13:58 10° WNW 19:17:02 52° NNE 19:17:39 43° ENE
STARLINK-1271 3.3 19:14:25 10° WNW 19:17:30 53° NNE 19:18:07 43° ENE
STARLINK-1234 3.0 19:14:32 10° WNW 19:17:33 61° NNE 19:17:59 53° ENE
STARLINK-1270 3.3 19:14:53 10° WNW 19:17:58 53° NNE 19:18:33 44° ENE
Cosmos 1980 Rocket 4.4 19:15:32 10° N 19:18:01 13° NNE 19:20:29 10° NE
STARLINK-1154 3.3 19:15:19 10° WNW 19:18:24 53° NNE 19:18:57 45° ENE
STARLINK-1237 4.3 19:15:09 10° WNW 19:19:12 49° N 19:21:10 27° ENE
STARLINK-1197 3.3 19:16:13 10° WNW 19:19:18 53° NNE 19:19:50 46° ENE
STARLINK-1189 3.3 19:16:41 10° WNW 19:19:46 54° NNE 19:20:16 46° ENE
STARLINK-1198 3.3 19:17:07 10° WNW 19:20:12 54° NNE 19:20:42 47° NE
STARLINK-1209 2.8 19:17:25 10° WNW 19:20:23 65° NNE 19:20:37 61° NE
STARLINK-1188 3.2 19:17:35 10° WNW 19:20:40 54° NNE 19:21:08 47° NE
Cosmos 2058 Rocket 3.0 19:16:38 10° S 19:21:08 81° E 19:25:40 10° NNE
STARLINK-1235 3.0 19:18:12 10° WNW 19:21:22 63° NNE 19:21:46 55° ENE
STARLINK-1187 3.1 19:18:38 10° WNW 19:21:46 59° NNE 19:22:12 52° ENE
MOS 1 Rocket 3.6 19:16:57 10° NNE 19:22:19 86° ESE 19:27:47 10° SSW
STARLINK-1199 3.2 19:19:31 10° WNW 19:22:38 56° NNE 19:23:03 50° NE
STARLINK-1191 3.2 19:19:58 10° WNW 19:23:05 56° NNE 19:23:29 50° NE
USA 234 3.4 19:16:54 10° ENE 19:23:12 48° SE 19:29:29 10° SSW
STARLINK-1210 3.2 19:20:26 10° WNW 19:23:32 56° NNE 19:23:55 51° NE
STARLINK-1221 3.2 19:20:52 10° WNW 19:23:59 56° NNE 19:24:21 52° NE
STARLINK-1202 4.2 19:20:08 10° WNW 19:24:11 50° N 19:25:56 29° ENE
Resurs 01 Rocket 1.6 19:21:42 24° S 19:24:20 79° WSW 19:28:47 10° NNW
STARLINK-1219 3.2 19:21:19 10° WNW 19:24:26 57° NNE 19:24:47 52° NE
STARLINK-1222 3.2 19:21:47 10° WNW 19:24:53 57° NNE 19:25:13 53° NE
STARLINK-1211 3.1 19:22:14 10° WNW 19:25:21 57° NNE 19:25:39 54° NE
ATLAS 2AS CENTAUR R/B 3.0 19:17:53 10° NW 19:25:28 69° SW 19:29:59 24° SSE
STARLINK-1214 3.1 19:22:41 10° WNW 19:25:47 58° NNE 19:26:05 54° NE
STARLINK-1245 3.1 19:23:09 10° WNW 19:26:15 58° NNE 19:26:30 55° NE
STARLINK-1238 3.1 19:23:34 10° WNW 19:26:42 58° NNE 19:26:57 55° NE
Cosmos 1892 4.1 19:24:04 10° NNE 19:26:53 24° ENE 19:26:53 24° ENE
STARLINK-1205 3.1 19:24:30 10° WNW 19:27:36 59° NNE 19:27:48 57° NE
STARLINK-1204 3.1 19:24:58 10° WNW 19:28:04 59° NNE 19:28:14 57° NE
Cosmos 2154 Rocket 4.4 19:22:04 10° NNW 19:28:23 67° W 19:34:38 10° S
STARLINK-1203 4.2 19:24:20 10° WNW 19:28:27 53° NNE 19:29:59 33° ENE
Cosmos 2181 Rocket 4.2 19:27:29 27° SSE 19:30:39 51° E 19:36:36 10° NNE
Iridium 4 Rocket 3.8 19:27:10 10° NNE 19:30:54 33° ENE 19:30:54 33° ENE
Cosmos 1190 Rocket 3.9 19:25:53 10° SSW 19:31:11 79° ESE 19:36:30 10° NNE
Cosmos 962 Rocket 4.4 19:25:38 10° N 19:31:50 86° E 19:35:47 24° S
Nadezhda 1 Rocket 4.3 19:25:47 10° SSW 19:32:10 69° WNW 19:38:31 10° N
Cosmos 1140 Rocket 3.3 19:27:21 10° SSW 19:32:31 71° ESE 19:37:40 10° NNE
USA 245 4.4 19:30:56 34° SE 19:33:28 66° ENE 19:39:44 10° N
Spot 2 Rocket 3.5 19:31:32 36° SE 19:33:34 69° ENE 19:38:39 10° N
SL-4 R/B 1.3 19:30:20 10° WSW 19:33:43 78° SSE 19:33:43 78° SSE
STARLINK-1246 4.2 19:30:07 10° WNW 19:34:11 52° NNE 19:35:30 36° ENE
Cosmos 1726 Rocket 4.5 19:30:20 10° SSW 19:34:36 50° WNW 19:38:57 10° N
SL-8 Rocket 4.0 19:29:30 10° N 19:35:48 65° ENE 19:38:40 33° SSE
Cosmos 1340 Rocket 3.0 19:32:48 13° SSW 19:36:19 72° WNW 19:40:22 10° N
STARLINK-1201 3.1 19:33:07 10° WNW 19:36:23 64° NNE 19:36:24 64° NNE
ATLAS 5 CENTAUR R/B 1.4 19:34:29 10° SSW 19:38:36 63° SE 19:43:16 10° NE
STARLINK-1224 4.1 19:35:06 10° WNW 19:39:11 54° NNE 19:40:17 40° ENE
SL-24 R/B - RUBIN 2 4.2 19:36:35 10° SSW 19:42:13 79° SE 19:48:35 10° NE
Cosmos 1825 4.4 19:40:31 10° NNE 19:41:43 14° NE 19:41:43 14° NE
STARLINK-1225 4.0 19:40:07 10° WNW 19:44:12 56° NNE 19:45:05 45° ENE
GRACE-FO 1 4.4 19:44:40 80° SE 19:44:47 83° E 19:48:32 10° N
GRACE-FO 2 4.4 19:45:04 81° SE 19:45:11 83° E 19:48:55 10° N
Cosmos 2366 rocket 4.0 19:41:17 10° N 19:47:23 63° ENE 19:49:25 42° SE
In-Cosmos 22 Rocket 4.3 19:42:45 10° N 19:48:36 67° ENE 19:50:20 45° SE
STARLINK-1230 4.0 19:45:05 10° WNW 19:49:11 58° NNE 19:49:52 50° NE
Cosmos 1300 2.6 19:50:48 79° SSW 19:51:00 87° W 19:54:52 10° N
MINOTAUR IV R/B 4.5 19:51:08 63° ESE 19:51:08 63° ESE 19:55:28 10° NNE
Cosmos 468 Rocket 4.3 19:47:53 10° NNW 19:52:56 49° ENE 19:53:40 46° E
IGS 5A 3.3 19:53:17 71° E 19:53:26 72° ENE 19:57:37 10° N
Abrixas rocket 3.7 19:50:39 10° W 19:52:19 29° W 19:52:19 29° W
STARLINK-1243 3.9 19:50:03 10° WNW 19:54:10 60° NNE 19:54:37 55° NE
COSMOS 2455 2.9 19:48:32 10° NW 19:54:34 76° WSW 19:56:39 43° SSE
Cosmos 1812 Rocket 3.9 19:56:43 49° ENE 19:56:43 49° ENE 20:00:18 10° NNE
Cosmos 1959 Rocket 4.4 19:49:49 10° N 19:56:11 75° E 19:58:19 44° SSE
Cosmos 921 Rocket 3.6 19:52:12 10° NNW 19:56:16 50° WSW 19:57:12 41° SW
STARLINK-1236 3.8 19:55:03 10° WNW 19:59:11 62° NNE 19:59:25 60° NE
Cosmos 676 Rocket 3.9 19:56:21 25° SSW 19:59:29 83° ESE 20:04:46 10° NNE
Cosmos 407 Rocket 4.2 19:55:59 10° SW 20:01:01 53° WNW 20:06:03 10° NNE
ERS-1 Rocket 2.8 20:07:39 66° ESE 20:08:07 71° ENE 20:13:08 10° N
STARLINK-1269 3.8 20:05:02 10° WNW 20:09:00 66° N 20:09:00 66° N
ATLAS CENTAUR R/B 3.3 20:08:27 10° NNW 20:11:20 19° NNE 20:11:25 19° NNE
ERBS 3.8 20:08:08 10° NW 20:10:29 36° NNW 20:10:29 36° NNW
Meteor 2-1 Rocket 4.3 20:11:13 58° SE 20:12:03 66° E 20:17:57 10° NNE
Landsat 7 3.8 20:11:37 63° SSW 20:12:16 74° WSW 20:17:03 10° NNW
STARLINK-1200 3.9 20:10:01 10° WNW 20:13:47 65° NNW 20:13:47 65° NNW
SPOT 1/Viking Rocket 3.5 20:14:31 62° S 20:15:24 81° WSW 20:20:40 10° NNW
Cosmos 220 Rocket 4.1 20:13:45 10° NNW 20:17:46 74° WNW 20:17:46 74° WNW
STARLINK-1192 4.0 20:15:00 10° WNW 20:18:33 61° NW 20:18:33 61° NW
Cosmos 1461 4.3 20:15:24 10° NW 20:19:28 33° WSW 20:19:51 32° SW
Cosmos 2369 4.4 20:18:01 10° NNW 20:23:20 39° NE 20:23:48 39° ENE
Cosmos 1954 Rocket 4.2 20:21:03 25° SW 20:24:05 67° WNW 20:29:19 10° NNE
STARLINK-1244 4.2 20:19:58 10° WNW 20:23:20 56° NW 20:23:20 56° NW
SL-08 R/B 4.3 20:21:32 10° N 20:27:42 84° E 20:28:38 66° SSE
Cosmos 489 Rocket 4.5 20:21:40 10° NNW 20:27:50 63° ENE 20:28:30 59° E
STARLINK-1138 4.4 20:24:56 10° WNW 20:28:06 51° NW 20:28:06 51° NW
Cosmos 1821 Rocket 4.1 20:23:10 10° N 20:29:27 56° ENE 20:29:53 55° E
Meteor 2-10 Rocket 4.2 20:31:30 43° NE 20:31:30 43° NE 20:35:31 10° NNE
Cosmos 2151 4.0 20:29:20 10° N 20:32:13 41° NNE 20:32:13 41° NNE
CZ-4C R/B 3.6 20:27:51 10° NW 20:34:18 43° NE 20:37:07 32° E
Cosmos 1697 Rocket 3.1 20:29:49 10° NNW 20:35:18 48° NE 20:35:27 48° ENE
Cosmos 1076 Rocket 4.2 20:31:13 10° NNW 20:35:03 49° WNW 20:35:03 49° WNW
SPOT 5 3.0 20:36:47 60° NW 20:36:47 60° NW 20:40:23 10° NNW
Cosmos 2058 4.2 20:41:01 10° NNW 20:44:18 37° WNW 20:44:18 37° WNW
Meteor 2-3 Rocket 4.4 20:39:26 10° N 20:44:26 43° ENE 20:44:26 43° ENE
SL-16 R/B 4.2 20:45:11 10° N 20:48:51 17° NE 20:50:30 15° ENE
Cosmos 1763 Rocket 3.7 20:44:51 10° NNW 20:49:35 67° WNW 20:49:35 67° WNW
Cosmos 1814 Rocket 4.4 20:48:09 10° NNW 20:52:51 59° NNE 20:52:51 59° NNE
Terra 2.3 20:55:02 58° NW 20:55:02 58° NW 20:58:59 10° NNW
Cosmos-2242 4.5 20:57:02 34° N 20:57:02 34° N 20:59:32 10° N
USA 32 4.2 20:50:44 10° N 20:55:38 67° WNW 20:55:38 67° WNW
RESURS DK-1 3.9 20:53:58 10° NNW 20:56:27 35° NNW 20:56:27 35° NNW
Cosmos 2322 Rocket 4.2 20:55:10 10° N 20:58:47 17° NE 21:00:21 15° NE
Cosmos 1455 4.5 21:03:41 22° N 21:03:41 22° N 21:05:11 10° N
Cosmos 1980 Rocket 2.9 20:58:11 10° NNW 21:03:10 44° NE 21:03:10 44° NE
Cosmos 540 Rocket 3.9 21:00:15 10° NNW 21:04:25 57° N 21:04:25 57° N
USA 234 3.4 20:59:56 10° NE 21:06:26 70° NNW 21:12:55 10° WSW
Cosmos 1656 4.1 21:05:36 10° NNW 21:10:37 58° W 21:10:37 58° W
ATLAS 5 CENTAUR R/B 3.6 21:19:49 10° W 21:23:39 28° NNW 21:27:57 10° NNE
Cosmos 841 Rocket 4.3 21:20:13 10° NNW 21:24:13 49° NW 21:24:13 49° NW
Cosmos 2278 4.1 21:20:56 10° NNW 21:25:34 59° N 21:25:34 59° N
Cosmos 2082 Rocket 3.8 21:33:29 25° NE 21:33:29 25° NE 21:35:57 10° NE
Mayak 0.9 21:28:54 10° N 21:30:35 23° N 21:30:35 23° N
Nadezhda 3 Rocket 4.5 21:43:48 53° W 21:44:00 53° WNW 21:50:10 10° N
COSMOS 2406 3.8 21:45:30 53° NNW 21:45:30 53° NNW 21:50:30 10° NNE
Cosmos 1833 Rocket 3.6 21:47:50 42° NNE 21:47:50 42° NNE 21:51:31 10° NNE
ATLAS CENTAUR R/B 4.1 21:46:53 10° NW 21:47:36 15° NW 21:47:36 15° NW
Cosmos 1697 Rocket 4.3 22:14:06 10° NW 22:17:11 26° WNW 22:17:11 26° WNW
CZ-4C R/B 3.1 22:16:16 10° NW 22:22:18 62° WNW 22:22:18 62° WNW
SL-16 R/B 3.2 22:28:26 10° NNW 22:32:20 43° N 22:32:20 43° N
Cosmos 2360 Rocket 3.5 22:35:08 10° NNW 22:39:34 35° NNE 22:39:34 35° NNE
Cosmos 2322 Rocket 3.3 22:38:21 10° NNW 22:42:08 42° N 22:42:08 42° N
Cosmos 1980 Rocket 4.0 22:42:25 10° NW 22:44:56 24° WNW 22:44:56 24° WNW
Cosmos 2333 Rocket 4.2 22:44:05 10° N 22:48:24 22° NE 22:49:56 20° ENE
USA 234 4.2 22:42:50 10° ENE 22:48:58 44° N 22:55:06 10° WNW
Cosmos 2082 Rocket 3.6 23:15:17 33° NW 23:15:17 33° NW 23:19:56 10° NNE
SL-16 R/B 3.5 23:29:17 38° ENE 23:29:54 39° ENE 23:35:37 10° N
Cosmos 2219 Rocket 3.3 23:34:56 10° NNW 23:40:10 39° NE 23:40:10 39° NE
COSMOS 2428 3.6 23:47:19 10° NNW 23:52:46 45° NE 23:52:46 45° NE
Cosmos 2322 4.5 23:47:51 10° NNW 23:52:05 49° N 23:52:05 49° N
